Location: Bletchingley
(51.2333°N, 0.1000°W)
Time: 22:41:32
(UTC+00:00)

Resurs 01 Rocket - Pass Details

Date: 18 September 2020
Orbit: 633 x 645 km, 98.0° (Epoch: 30 October)

Event Time Altitude Azimuth Distance (km) Brightness Sun altitude
Exits shadow 19:19:14 17° 102° (ESE) 1,622 3.0 -11.9°
Maximum altitude 19:21:26 25° 62° (ENE) 1,315 2.9 -12.3°
Drops below altitude 10° 19:25:03 10° 8° (N) 2,055 4.4 -12.8°
Sets 19:27:34 0° 355° (N) 2,968 5.4 -13.2°
